Location: Newark
(10.7761°N, 106.6983°E)
Time: 23:29:44
(UTC+00:00)

ISS - Visible Passes

Search period start: 04 August 2020 00:00
Search period end: 14 August 2020 00:00
Orbit: 418 x 420 km, 51.6° (Epoch: 05 August)

Date Brightness Start Highest point End Pass type
(mag) Time Alt. Az. Time Alt. Az. Time Alt. Az.
07 Aug -1.2 12:25:48 10° NNE 12:26:10 11° NE 12:26:10 11° NE visible
08 Aug -1.0 13:12:48 10° NW 13:13:54 19° NW 13:13:54 19° NW visible
09 Aug -3.6 12:25:18 10° NNW 12:28:34 52° NE 12:28:45 51° ENE visible
10 Aug -2.3 11:38:16 10° N 11:41:00 23° NE 11:43:42 10° ESE visible
10 Aug -0.5 13:16:13 10° W 13:16:42 11° WSW 13:16:42 11° WSW visible
11 Aug -1.8 12:27:12 10° WNW 12:30:02 25° SW 12:31:44 17° SSW visible
12 Aug -3.3 11:39:11 10° NW 11:42:30 61° SW 11:45:49 10° SSE visible
